• In Russia
  • List of Countries
  • For 7 days
  • Water Temperature
  • Satellite Maps
  • Weather Map
  • Weather Widgets
  • user-avatar
    Login

    Hourly Weather Baku

    Today, 22 May, Monday

    Time Temperature Precipitation Wind Pressure Humidity
    00:00 +16°C° 0 mm 6 mps 755 mmHg 76%
    01:00 +16°C° 0 mm 6 mps 756 mmHg 77%
    02:00 +16°C° 0 mm 5 mps 756 mmHg 79%
    03:00 +16°C° 0 mm 5 mps 756 mmHg 80%
    04:00 +17°C° 0 mm 4 mps 756 mmHg 79%
    05:00 +18°C° 0 mm 4 mps 756 mmHg 77%
    06:00 +18°C° 0 mm 3 mps 757 mmHg 76%
    07:00 +19°C° 0 mm 3 mps 757 mmHg 71%
    08:00 +20°C° 0 mm 2 mps 757 mmHg 66%
    09:00 +21°C° 0 mm 2 mps 757 mmHg 60%
    10:00 +21°C° 0 mm 2 mps 757 mmHg 57%
    11:00 +22°C° 0 mm 3 mps 757 mmHg 54%
    12:00 +24°C° 0 mm 3 mps 757 mmHg 51%
    13:00 +23°C° 0 mm 4 mps 757 mmHg 53%
    14:00 +23°C° 0 mm 5 mps 757 mmHg 54%
    15:00 +23°C° 0 mm 6 mps 757 mmHg 56%
    16:00 +22°C° 0 mm 6 mps 757 mmHg 59%
    17:00 +21°C° 0 mm 6 mps 757 mmHg 62%
    18:00 +20°C° 0 mm 6 mps 757 mmHg 66%
    19:00 +20°C° 0 mm 5 mps 757 mmHg 69%
    20:00 +19°C° 0 mm 5 mps 757 mmHg 71%
    21:00 +19°C° 0 mm 4 mps 757 mmHg 74%
    22:00 +18°C° 0 mm 4 mps 757 mmHg 75%
    23:00 +18°C° 0 mm 4 mps 757 mmHg 76%

    Tomorrow, 23 May, Tuesday

    Time Temperature Precipitation Wind Pressure Humidity
    00:00 +18°C° 0 mm 4 mps 757 mmHg 77%
    01:00 +18°C° 0 mm 4 mps 756 mmHg 77%
    02:00 +18°C° 0 mm 4 mps 756 mmHg 76%
    03:00 +18°C° 0 mm 4 mps 756 mmHg 76%
    04:00 +17°C° 0 mm 5 mps 756 mmHg 75%
    05:00 +19°C° 0 mm 5 mps 756 mmHg 74%
    06:00 +19°C° 0 mm 6 mps 756 mmHg 72%
    07:00 +20°C° 0 mm 7 mps 756 mmHg 67%
    08:00 +22°C° 0 mm 7 mps 756 mmHg 62%
    09:00 +23°C° 0 mm 8 mps 756 mmHg 57%
    10:00 +24°C° 0 mm 8 mps 756 mmHg 52%
    11:00 +27°C° 0 mm 8 mps 756 mmHg 48%
    12:00 +28°C° 0 mm 8 mps 755 mmHg 43%
    13:00 +28°C° 0 mm 7 mps 755 mmHg 43%
    14:00 +28°C° 0 mm 6 mps 755 mmHg 43%
    15:00 +28°C° 0 mm 6 mps 755 mmHg 43%
    16:00 +26°C° 0 mm 7 mps 755 mmHg 51%
    17:00 +23°C° 0 mm 7 mps 756 mmHg 59%
    18:00 +21°C° 0 mm 8 mps 756 mmHg 67%
    19:00 +19°C° 0 mm 9 mps 756 mmHg 69%
    20:00 +19°C° 0 mm 10 mps 757 mmHg 71%
    21:00 +18°C° 0 mm 11 mps 757 mmHg 73%
    22:00 +18°C° 0 mm 11 mps 757 mmHg 72%
    23:00 +18°C° 0 mm 11 mps 758 mmHg 72%

    Day after tomorrow, 24 May, Wednesday

    Time Temperature Precipitation Wind Pressure Humidity
    00:00 +17°C° 0 mm 11 mps 758 mmHg 71%
    01:00 +17°C° 0.1 mm 11 mps 758 mmHg 72%
    02:00 +17°C° 0.1 mm 10 mps 758 mmHg 72%
    03:00 +17°C° 0.1 mm 10 mps 758 mmHg 72%
    04:00 +17°C° 0 mm 9 mps 758 mmHg 70%
    05:00 +17°C° 0 mm 8 mps 758 mmHg 68%
    06:00 +18°C° 0 mm 8 mps 758 mmHg 67%
    07:00 +20°C° 0 mm 8 mps 758 mmHg 63%
    08:00 +21°C° 0 mm 7 mps 758 mmHg 59%
    09:00 +22°C° 0 mm 7 mps 758 mmHg 55%
    10:00 +22°C° 0 mm 7 mps 758 mmHg 55%
    11:00 +22°C° 0 mm 7 mps 758 mmHg 55%
    12:00 +23°C° 0 mm 7 mps 758 mmHg 54%
    13:00 +23°C° 0 mm 7 mps 758 mmHg 55%
    14:00 +23°C° 0 mm 7 mps 757 mmHg 56%
    15:00 +22°C° 0 mm 7 mps 757 mmHg 56%
    16:00 +22°C° 0.1 mm 9 mps 757 mmHg 60%
    17:00 +21°C° 0.1 mm 10 mps 758 mmHg 63%
    18:00 +19°C° 0.1 mm 11 mps 758 mmHg 67%
    19:00 +18°C° 0.2 mm 12 mps 758 mmHg 68%
    20:00 +18°C° 0.2 mm 12 mps 759 mmHg 69%
    21:00 +18°C° 0.2 mm 13 mps 759 mmHg 71%
    22:00 +17°C° 0.3 mm 12 mps 759 mmHg 72%
    23:00 +17°C° 0.3 mm 12 mps 759 mmHg 73%

    25 May, Thursday

    Time Temperature Precipitation Wind Pressure Humidity
    00:00 +17°C° 0.3 mm 12 mps 759 mmHg 74%
    01:00 +17°C° 0 mm 11 mps 759 mmHg 75%
    02:00 +17°C° 0 mm 10 mps 759 mmHg 77%
    03:00 +16°C° 0 mm 9 mps 759 mmHg 78%
    04:00 +16°C° 0 mm 9 mps 759 mmHg 76%
    05:00 +17°C° 0 mm 8 mps 760 mmHg 75%
    06:00 +17°C° 0 mm 8 mps 760 mmHg 73%
    07:00 +18°C° 0 mm 7 mps 760 mmHg 70%
    08:00 +19°C° 0 mm 6 mps 760 mmHg 67%
    09:00 +20°C° 0 mm 6 mps 761 mmHg 63%
    10:00 +21°C° 0 mm 6 mps 760 mmHg 60%
    11:00 +22°C° 0 mm 6 mps 760 mmHg 57%
    12:00 +22°C° 0 mm 5 mps 760 mmHg 54%
    13:00 +22°C° 0 mm 5 mps 760 mmHg 55%
    14:00 +22°C° 0 mm 5 mps 760 mmHg 56%
    15:00 +21°C° 0 mm 5 mps 760 mmHg 56%
    16:00 +21°C° 0 mm 5 mps 760 mmHg 59%
    17:00 +20°C° 0 mm 5 mps 760 mmHg 61%
    18:00 +19°C° 0 mm 5 mps 760 mmHg 64%
    19:00 +19°C° 0 mm 5 mps 761 mmHg 65%
    20:00 +17°C° 0 mm 5 mps 761 mmHg 65%
    21:00 +18°C° 0 mm 4 mps 762 mmHg 66%
    22:00 +18°C° 0 mm 4 mps 762 mmHg 67%
    23:00 +18°C° 0 mm 3 mps 762 mmHg 68%

    26 May, Friday

    Time Temperature Precipitation Wind Pressure Humidity
    00:00 +18°C° 0 mm 3 mps 762 mmHg 69%
    01:00 +18°C° 0 mm 2 mps 762 mmHg 70%
    02:00 +17°C° 0 mm 2 mps 762 mmHg 71%
    03:00 +17°C° 0 mm 2 mps 761 mmHg 72%
    04:00 +19°C° 0 mm 1 mps 762 mmHg 70%
    05:00 +19°C° 0 mm 1 mps 762 mmHg 67%
    06:00 +20°C° 0 mm 1 mps 762 mmHg 64%
    07:00 +21°C° 0 mm 1 mps 762 mmHg 61%
    08:00 +21°C° 0 mm 2 mps 762 mmHg 57%
    09:00 +23°C° 0 mm 2 mps 762 mmHg 53%
    10:00 +22°C° 0 mm 3 mps 762 mmHg 52%
    11:00 +24°C° 0 mm 3 mps 762 mmHg 50%
    12:00 +25°C° 0 mm 4 mps 762 mmHg 49%
    13:00 +25°C° 0 mm 4 mps 761 mmHg 50%
    14:00 +23°C° 0 mm 5 mps 761 mmHg 51%
    15:00 +23°C° 0 mm 5 mps 761 mmHg 52%
    16:00 +23°C° 0 mm 4 mps 761 mmHg 55%
    17:00 +22°C° 0 mm 4 mps 760 mmHg 58%
    18:00 +21°C° 0 mm 4 mps 760 mmHg 61%
    19:00 +20°C° 0 mm 3 mps 761 mmHg 64%
    20:00 +20°C° 0 mm 2 mps 761 mmHg 66%
    21:00 +19°C° 0 mm 2 mps 761 mmHg 68%
    22:00 +19°C° 0 mm 2 mps 761 mmHg 69%
    23:00 +20°C° 0 mm 1 mps 760 mmHg 70%

    27 May, Saturday

    Time Temperature Precipitation Wind Pressure Humidity
    00:00 +20°C° 0 mm 1 mps 760 mmHg 71%
    01:00 +20°C° 0 mm 1 mps 760 mmHg 71%
    02:00 +18°C° 0 mm 2 mps 759 mmHg 70%
    03:00 +18°C° 0 mm 2 mps 759 mmHg 70%
    04:00 +19°C° 0 mm 2 mps 759 mmHg 67%
    05:00 +19°C° 0 mm 3 mps 759 mmHg 65%
    06:00 +20°C° 0 mm 3 mps 759 mmHg 62%
    07:00 +21°C° 0 mm 3 mps 759 mmHg 57%
    08:00 +24°C° 0 mm 3 mps 759 mmHg 53%
    09:00 +25°C° 0 mm 4 mps 759 mmHg 48%
    10:00 +26°C° 0 mm 4 mps 759 mmHg 46%
    11:00 +27°C° 0 mm 4 mps 758 mmHg 44%
    12:00 +28°C° 0 mm 4 mps 758 mmHg 42%
    13:00 +28°C° 0 mm 5 mps 757 mmHg 42%
    14:00 +28°C° 0 mm 5 mps 757 mmHg 41%
    15:00 +28°C° 0 mm 5 mps 756 mmHg 41%
    16:00 +27°C° 0.1 mm 4 mps 756 mmHg 43%
    17:00 +26°C° 0.1 mm 4 mps 756 mmHg 46%
    18:00 +25°C° 0.1 mm 4 mps 756 mmHg 49%
    19:00 +24°C° 0.5 mm 3 mps 756 mmHg 54%
    20:00 +23°C° 0.5 mm 2 mps 756 mmHg 59%
    21:00 +22°C° 0.5 mm 1 mps 756 mmHg 64%
    22:00 +22°C° 0.2 mm 1 mps 755 mmHg 66%
    23:00 +21°C° 0.2 mm 2 mps 755 mmHg 67%
    Show more